Location: Plymouth Village
(34.0436°N, 117.1717°W)
Time: 05:07:37
(UTC+00:00)

Cosmos 1867 - Pass Details

Date: 10 September 2024
Orbit: 772 x 802 km, 65.0° (Epoch: 09 October)

Event Time Altitude Azimuth Distance (km) Brightness Sun altitude
Exits shadow 12:03:55 27° 220° (SW) 1,496 4.5 -18.0°
Maximum altitude 12:06:57 71° 299° (WNW) 838 3.5 -17.4°
Drops below altitude 10° 12:12:25 10° 24° (NNE) 2,375 6.6 -16.3°
Sets 12:14:52 0° 27° (NNE) 3,311 7.5 -15.8°
